{"data":{"norad_id":67147,"intl_designator":"2025-301Q","name":"KUIPER-00221","alt_names":[],"object_type":"PAYLOAD","status":"ACTIVE","operator":null,"country":"US","launch_date":"2025-12-16","launch_site_code":"AFETR","launch_vehicle":null,"mission":null,"orbit_class":"UNKNOWN","rcs_meters":null,"size_class":null,"mass_kg":null,"dimensions":null,"purposes":[],"wikipedia_slug":null,"has_3d_model":false,"image_url":null,"decayed_at":null,"tle_current":{"epoch":"2026-05-25T04:30:35.792064Z","epoch_age_seconds":54728,"freshness":"FRESH","line1":"1 67147U 25301Q   26145.18791426  .00002934  00000+0  41370-3 0  9997","line2":"2 67147  51.9005 102.3426 0000769  73.0894 287.0152 14.79932930 24859","mean_motion":14.7993293,"eccentricity":7.69e-5,"inclination_deg":51.9005,"raan_deg":102.3426,"arg_perigee_deg":73.0894,"mean_anomaly_deg":287.0152,"bstar":0.0004137,"rev_number":2485,"period_min":97.301706773968,"perigee_km":628.99696010548,"apogee_km":630.07474018983,"semimajor_km":7007.6728501477,"source":"CELESTRAK","updated_at":"2026-05-25T13:38:06.775763Z"}}}